TimeCDT,TemperatureF,Dew PointF,Humidity,Sea Level PressureIn,VisibilityMPH,Wind Direction,Wind SpeedMPH,Gust SpeedMPH,PrecipitationIn,Events,Conditions,WindDirDegrees,DateUTC
12:15 AM,50.0,26.6,40,29.72,10.0,Calm,Calm,-,N/A,,Clear,0,2012-10-20 05:15:00
12:35 AM,51.8,26.6,38,29.72,10.0,West,3.5,-,N/A,,Clear,270,2012-10-20 05:35:00
12:55 AM,50.0,26.6,40,29.71,10.0,Calm,Calm,-,N/A,,Clear,0,2012-10-20 05:55:00
1:15 AM,46.4,26.6,46,29.71,10.0,Calm,Calm,-,N/A,,Clear,0,2012-10-20 06:15:00
1:35 AM,48.2,26.6,43,29.71,10.0,Calm,Calm,-,N/A,,Clear,0,2012-10-20 06:35:00
1:55 AM,46.4,28.4,50,29.70,10.0,South,6.9,-,N/A,,Clear,180,2012-10-20 06:55:00
2:15 AM,46.4,26.6,46,29.70,10.0,Calm,Calm,-,N/A,,Clear,0,2012-10-20 07:15:00
2:35 AM,46.4,26.6,46,29.70,10.0,Calm,Calm,-,N/A,,Clear,0,2012-10-20 07:35:00
2:55 AM,48.2,26.6,43,29.69,10.0,South,11.5,-,N/A,,Clear,180,2012-10-20 07:55:00
3:15 AM,46.4,24.8,43,29.69,10.0,Calm,Calm,-,N/A,,Clear,0,2012-10-20 08:15:00
3:35 AM,46.4,26.6,46,29.68,10.0,SSW,12.7,-,N/A,,Clear,200,2012-10-20 08:35:00
4:15 AM,46.4,26.6,46,29.67,10.0,Calm,Calm,-,N/A,,Clear,0,2012-10-20 09:15:00
4:35 AM,46.4,26.6,46,29.67,10.0,WNW,3.5,-,N/A,,Clear,290,2012-10-20 09:35:00
4:55 AM,46.4,24.8,43,29.67,10.0,Calm,Calm,-,N/A,,Clear,0,2012-10-20 09:55:00
5:15 AM,46.4,24.8,43,29.67,10.0,Calm,Calm,-,N/A,,Clear,0,2012-10-20 10:15:00
6:15 AM,44.6,26.6,49,29.67,10.0,SSE,3.5,-,N/A,,Clear,160,2012-10-20 11:15:00
6:35 AM,46.4,26.6,46,29.67,10.0,Calm,Calm,-,N/A,,Clear,0,2012-10-20 11:35:00
6:55 AM,44.6,24.8,46,29.66,10.0,Calm,Calm,-,N/A,,Clear,0,2012-10-20 11:55:00
7:15 AM,46.4,24.8,43,29.66,10.0,Calm,Calm,-,N/A,,Clear,0,2012-10-20 12:15:00
7:35 AM,39.2,24.8,56,29.67,10.0,Calm,Calm,-,N/A,,Clear,0,2012-10-20 12:35:00
7:55 AM,44.6,24.8,46,29.67,10.0,Calm,Calm,-,N/A,,Clear,0,2012-10-20 12:55:00
8:15 AM,44.6,26.6,49,29.66,10.0,South,6.9,-,N/A,,Clear,190,2012-10-20 13:15:00
8:35 AM,48.2,26.6,43,29.66,10.0,South,6.9,-,N/A,,Clear,190,2012-10-20 13:35:00
8:55 AM,46.4,26.6,46,29.66,10.0,West,3.5,-,N/A,,Clear,280,2012-10-20 13:55:00
9:15 AM,48.2,28.4,46,29.65,10.0,Calm,Calm,-,N/A,,Clear,0,2012-10-20 14:15:00
9:35 AM,53.6,28.4,38,29.65,10.0,Calm,Calm,-,N/A,,Clear,0,2012-10-20 14:35:00
9:55 AM,55.4,28.4,36,29.65,10.0,Calm,Calm,-,N/A,,Clear,0,2012-10-20 14:55:00
10:15 AM,57.2,28.4,33,29.64,10.0,SE,3.5,-,N/A,,Clear,140,2012-10-20 15:15:00
10:35 AM,62.6,32.0,32,29.64,9.0,SE,3.5,-,N/A,,Clear,130,2012-10-20 15:35:00
10:55 AM,62.6,32.0,32,29.64,10.0,WNW,3.5,-,N/A,,Clear,300,2012-10-20 15:55:00
11:15 AM,64.4,30.2,28,29.63,10.0,Calm,Calm,-,N/A,,Clear,0,2012-10-20 16:15:00
11:35 AM,68.0,30.2,24,29.62,10.0,NE,3.5,-,N/A,,Clear,50,2012-10-20 16:35:00
11:55 AM,69.8,32.0,25,29.62,10.0,NNW,3.5,-,N/A,,Clear,330,2012-10-20 16:55:00
12:15 PM,71.6,32.0,23,29.62,10.0,WNW,8.1,-,N/A,,Clear,290,2012-10-20 17:15:00
12:35 PM,71.6,32.0,23,29.61,10.0,WNW,8.1,-,N/A,,Clear,300,2012-10-20 17:35:00
12:55 PM,71.6,32.0,23,29.60,10.0,WNW,4.6,-,N/A,,Clear,300,2012-10-20 17:55:00
1:15 PM,73.4,32.0,22,29.59,10.0,SW,8.1,-,N/A,,Clear,220,2012-10-20 18:15:00
1:35 PM,73.4,32.0,22,29.58,10.0,SW,10.4,20.7,N/A,,Partly Cloudy,230,2012-10-20 18:35:00
1:55 PM,73.4,32.0,22,29.57,10.0,West,9.2,-,N/A,,Clear,260,2012-10-20 18:55:00
2:15 PM,73.4,32.0,22,29.57,10.0,NNW,5.8,-,N/A,,Clear,340,2012-10-20 19:15:00
2:35 PM,75.2,32.0,21,29.56,10.0,West,11.5,16.1,N/A,,Clear,260,2012-10-20 19:35:00
3:15 PM,75.2,32.0,21,29.56,10.0,WNW,11.5,-,N/A,,Clear,300,2012-10-20 20:15:00
3:55 PM,73.4,32.0,22,29.55,10.0,West,8.1,-,N/A,,Clear,270,2012-10-20 20:55:00
4:35 PM,73.4,32.0,22,29.56,10.0,WNW,11.5,-,N/A,,Partly Cloudy,290,2012-10-20 21:35:00
4:55 PM,73.4,32.0,22,29.55,10.0,West,10.4,-,N/A,,Clear,280,2012-10-20 21:55:00
5:15 PM,73.4,32.0,22,29.55,10.0,NNW,13.8,-,N/A,,Clear,330,2012-10-20 22:15:00
5:35 PM,71.6,32.0,23,29.55,10.0,NNW,12.7,-,N/A,,Clear,340,2012-10-20 22:35:00
5:55 PM,66.2,32.0,28,29.57,10.0,NW,10.4,-,N/A,,Clear,320,2012-10-20 22:55:00
6:15 PM,64.4,32.0,30,29.57,10.0,WNW,11.5,-,N/A,,Clear,300,2012-10-20 23:15:00
6:35 PM,64.4,32.0,30,29.58,10.0,West,9.2,-,N/A,,Clear,280,2012-10-20 23:35:00
6:55 PM,62.6,32.0,32,29.58,10.0,West,6.9,-,N/A,,Clear,280,2012-10-20 23:55:00
7:15 PM,60.8,32.0,34,29.60,10.0,North,-9999.0,-,N/A,,Scattered Clouds,0,2012-10-21 00:15:00
7:35 PM,59.0,32.0,36,29.60,10.0,NW,6.9,-,N/A,,Scattered Clouds,310,2012-10-21 00:35:00
7:55 PM,57.2,32.0,38,29.61,10.0,WNW,8.1,-,N/A,,Partly Cloudy,300,2012-10-21 00:55:00
8:15 PM,57.2,33.8,41,29.62,10.0,WNW,6.9,-,N/A,,Clear,300,2012-10-21 01:15:00
8:35 PM,57.2,33.8,41,29.63,10.0,NW,4.6,-,N/A,,Partly Cloudy,310,2012-10-21 01:35:00
9:15 PM,53.6,35.6,51,29.63,10.0,West,5.8,-,N/A,,Scattered Clouds,260,2012-10-21 02:15:00
9:35 PM,51.8,35.6,54,29.64,10.0,WNW,4.6,-,N/A,,Clear,290,2012-10-21 02:35:00
9:55 PM,50.0,35.6,58,29.65,10.0,WNW,5.8,-,N/A,,Clear,290,2012-10-21 02:55:00
10:15 PM,50.0,35.6,58,29.67,10.0,West,6.9,-,N/A,,Clear,270,2012-10-21 03:15:00
10:35 PM,48.2,35.6,62,29.68,10.0,West,5.8,-,N/A,,Clear,270,2012-10-21 03:35:00
10:55 PM,48.2,35.6,62,29.68,10.0,West,3.5,-,N/A,,Clear,260,2012-10-21 03:55:00
11:35 PM,46.4,35.6,66,29.69,10.0,WSW,4.6,-,N/A,,Partly Cloudy,240,2012-10-21 04:35:00
11:55 PM,44.6,35.6,71,29.70,10.0,SW,5.8,-,N/A,,Partly Cloudy,220,2012-10-21 04:55:00